Date String (YYYY-MM-DD hh:mm:ss) UTC,Instrument flags,Ambient pressure (hPa),Sample flow (lpm),Bypass flow (lpm),Sample temperature (°C),Ambient temperature (°C),ASC tube jacket temperature (°C),LED temperature (°C),Box temperature (°C),Sample RH (%),Span deviation,Mass concentration (μg/m³),Mass concentration (μg/m³),Mass concentration (μg/m³)
DateTimeUTC,F1_M11,P_M11,Q1_M11,Q2_M11,T1_M11,T2_M11,T3_M11,T4_M11,T5_M11,U1_M11,ZSPAN_M11,X0_M11,X2_M11,X1_M11
2022-03-23 00:00:00,,0828.6,5.01,0.00,22.1,21.3,00.0,31.3,23.7,09.7,0000.0,0000.77,0000.43,0000.29
2022-03-23 00:01:00,,0828.3,5.01,0.00,22.1,21.3,00.0,31.3,23.7,10.1,0000.0,0001.05,0000.46,0000.30
2022-03-23 00:02:00,,0828.4,5.00,0.00,22.1,21.3,00.0,31.3,23.6,11.4,0000.0,0005.27,0000.78,0000.33
2022-03-23 00:03:00,,0828.7,4.98,0.00,22.0,21.3,00.0,31.3,23.6,11.9,0000.0,0009.69,0001.41,0000.38
2022-03-23 00:04:00,,0828.5,5.00,0.00,22.0,21.2,00.0,31.2,23.5,12.1,0000.0,0012.95,0001.85,0000.41
2022-03-23 00:05:00,,0828.7,5.01,0.00,22.0,21.2,00.0,31.2,23.5,12.3,0000.0,0014.09,0001.99,0000.43
2022-03-23 00:06:00,,0829.1,5.01,0.00,21.9,21.1,00.0,31.2,23.4,12.5,0000.0,0015.21,0002.05,0000.45
2022-03-23 00:07:00,,0828.9,5.00,0.00,21.9,21.1,00.0,31.2,23.4,12.8,0000.0,0015.38,0002.12,0000.46
2022-03-23 00:08:00,,0829.0,5.00,0.00,21.9,21.3,00.0,31.2,23.6,12.4,0000.0,0015.46,0002.16,0000.47
2022-03-23 00:09:00,,0828.6,5.00,0.00,22.1,22.2,00.0,31.2,23.9,12.2,0000.0,0015.56,0002.22,0000.49
2022-03-23 00:10:00,,0829.0,5.00,0.00,22.2,23.0,00.0,31.2,24.2,12.4,0000.0,0015.59,0002.24,0000.50
2022-03-23 00:11:00,,0829.0,5.00,0.00,22.3,22.9,00.0,31.2,24.2,12.4,0000.0,0015.65,0002.28,0000.51
2022-03-23 00:12:00,,0828.7,5.00,0.00,22.3,22.7,00.0,31.2,24.2,12.5,0000.0,0015.66,0002.28,0000.52
2022-03-23 00:13:00,,0828.4,4.99,0.00,22.3,22.4,00.0,31.3,24.1,12.1,0000.0,0014.12,0002.01,0000.51
2022-03-23 00:14:00,,0828.6,5.00,0.00,22.3,22.2,00.0,31.3,24.0,12.4,0000.0,0011.08,0001.43,0000.47
2022-03-23 00:15:00,,0828.4,4.99,0.00,22.3,22.0,00.0,31.3,24.0,12.4,0000.0,0007.50,0000.96,0000.43
2022-03-23 00:16:00,,0828.5,5.00,0.00,22.3,21.9,00.0,31.3,24.0,12.2,0000.0,0005.26,0000.80,0000.43
2022-03-23 00:17:00,,0828.5,5.00,0.00,22.3,21.7,00.0,31.3,24.0,12.0,0000.0,0003.49,0000.77,0000.43
2022-03-23 00:18:00,,0828.5,5.00,0.00,22.3,21.7,00.0,31.3,24.0,12.0,0000.0,0002.96,0000.74,0000.43
2022-03-23 00:19:00,,0829.1,5.00,0.00,22.3,21.6,00.0,31.3,23.9,12.0,0000.0,0002.92,0000.72,0000.43
2022-03-23 00:20:00,,0829.0,5.00,0.00,22.3,21.6,00.0,31.3,23.9,12.0,0000.0,0003.05,0000.70,0000.43
2022-03-23 00:21:00,,0828.7,5.00,0.00,22.2,21.5,00.0,31.3,23.9,12.0,0000.0,0003.81,0000.70,0000.42
2022-03-23 00:22:00,,0829.0,5.00,0.00,22.2,21.5,00.0,31.3,23.9,11.9,0000.0,0003.98,0000.73,0000.43
2022-03-23 00:23:00,,0829.1,5.00,0.00,22.2,21.5,00.0,31.3,23.9,11.9,0000.0,0003.88,0000.71,0000.42
2022-03-23 00:24:00,,0829.0,5.00,0.00,22.2,21.5,00.0,31.3,23.9,11.9,0000.0,0002.69,0000.74,0000.42
2022-03-23 00:25:00,,0828.9,5.00,0.00,22.2,21.4,00.0,31.3,23.9,11.7,0000.0,0002.84,0000.78,0000.42
2022-03-23 00:26:00,,0828.6,5.00,0.00,22.2,21.4,00.0,31.3,23.9,11.8,0000.0,0002.86,0000.77,0000.42
2022-03-23 00:27:00,,0828.5,5.01,0.00,22.2,21.4,00.0,31.2,23.9,11.8,0000.0,0002.72,0000.74,0000.42
2022-03-23 00:28:00,,0828.9,5.01,0.00,22.2,21.4,00.0,31.2,23.9,11.9,0000.0,0002.91,0000.74,0000.41
2022-03-23 00:29:00,,0828.6,5.00,0.00,22.2,21.4,00.0,31.2,23.9,12.5,0000.0,0002.94,0000.73,0000.41
2022-03-23 00:30:00,,0828.6,5.00,0.00,22.2,21.4,00.0,31.2,23.9,12.5,0000.0,0002.99,0000.74,0000.41
2022-03-23 00:31:00,,0828.6,5.00,0.00,22.2,21.5,00.0,31.2,23.9,12.6,0000.0,0002.72,0000.71,0000.40
2022-03-23 00:32:00,,0828.6,5.00,0.00,22.2,21.5,00.0,31.2,23.9,12.6,0000.0,0002.02,0000.73,0000.40
2022-03-23 00:33:00,,0828.7,5.00,0.00,22.2,21.5,00.0,31.2,23.9,12.6,0000.0,0001.85,0000.70,0000.39
2022-03-23 00:34:00,,0828.6,5.01,0.00,22.2,21.5,00.0,31.2,24.0,12.3,0000.0,0001.91,0000.73,0000.39
2022-03-23 00:35:00,,0828.8,5.00,0.00,22.2,21.5,00.0,31.2,24.0,12.0,0000.0,0002.04,0000.72,0000.40
2022-03-23 00:36:00,,0828.8,5.00,0.00,22.2,21.5,00.0,31.2,24.0,12.2,0000.0,0002.08,0000.67,0000.40
2022-03-23 00:37:00,,0828.6,5.00,0.00,22.3,21.5,00.0,31.2,24.0,12.3,0000.0,0002.11,0000.66,0000.39
2022-03-23 00:38:00,,0828.6,5.00,0.00,22.3,21.5,00.0,31.2,24.0,12.2,0000.0,0002.10,0000.66,0000.38
2022-03-23 00:39:00,,0828.6,5.00,0.00,22.3,21.5,00.0,31.2,24.0,12.1,0000.0,0002.70,0000.70,0000.39
2022-03-23 00:40:00,,0828.6,5.01,0.00,22.3,21.5,00.0,31.2,24.0,11.8,0000.0,0003.53,0000.73,0000.40
2022-03-23 00:41:00,,0828.7,5.00,0.00,22.3,21.5,00.0,31.2,24.0,11.3,0000.0,0003.38,0000.70,0000.40
2022-03-23 00:42:00,,0828.9,4.99,0.00,22.3,21.5,00.0,31.2,24.0,10.5,0000.0,0003.46,0000.74,0000.41
2022-03-23 00:43:00,,0828.6,4.99,0.00,22.3,21.5,00.0,31.2,24.0,09.5,0000.0,0003.36,0000.73,0000.43
2022-03-23 00:44:00,,0828.6,5.00,0.00,22.2,21.5,00.0,31.2,23.9,09.1,0000.0,0003.32,0000.72,0000.43
2022-03-23 00:45:00,,0828.5,5.00,0.00,22.2,21.5,00.0,31.2,23.9,08.8,0000.0,0003.21,0000.68,0000.44
2022-03-23 00:46:00,,0828.7,5.00,0.00,22.2,21.5,00.0,31.2,23.9,08.6,0000.0,0003.05,0000.67,0000.44
2022-03-23 00:47:00,,0828.7,5.00,0.00,22.2,21.4,00.0,31.2,23.9,08.5,0000.0,0002.77,0000.68,0000.44
2022-03-23 00:48:00,,0828.7,5.02,0.00,22.2,21.4,00.0,31.2,23.9,08.4,0000.0,0002.73,0000.70,0000.45
2022-03-23 00:49:00,,0828.7,4.98,0.00,22.2,21.4,00.0,31.2,23.9,08.4,0000.0,0002.88,0000.77,0000.46
2022-03-23 00:50:00,,0828.7,5.01,0.00,22.2,21.3,00.0,31.2,23.8,08.5,0000.0,0002.43,0000.76,0000.46
2022-03-23 00:51:00,,0828.7,4.99,0.00,22.1,21.3,00.0,31.2,23.8,08.3,0000.0,0001.23,0000.72,0000.46
2022-03-23 00:52:00,,0829.0,5.01,0.00,22.1,21.3,00.0,31.2,23.7,08.2,0000.0,0001.29,0000.73,0000.45
2022-03-23 00:53:00,,0829.2,5.01,0.00,22.1,21.3,00.0,31.2,23.7,08.5,0000.0,0001.30,0000.72,0000.45
2022-03-23 00:54:00,,0829.1,5.00,0.00,22.1,21.2,00.0,31.2,23.7,08.5,0000.0,0001.30,0000.73,0000.45
2022-03-23 00:55:00,,0829.0,4.99,0.00,22.0,21.2,00.0,31.1,23.7,08.4,0000.0,0001.38,0000.74,0000.45
2022-03-23 00:56:00,,0829.1,4.99,0.00,22.0,21.2,00.0,31.1,23.6,08.3,0000.0,0001.41,0000.75,0000.45
2022-03-23 00:57:00,,0828.9,5.00,0.00,22.0,21.2,00.0,31.1,23.6,08.1,0000.0,0001.46,0000.75,0000.45
2022-03-23 00:58:00,,0828.9,5.00,0.00,22.0,21.2,00.0,31.1,23.6,08.2,0000.0,0001.42,0000.73,0000.44
2022-03-23 00:59:00,,0829.0,5.00,0.00,22.0,21.2,00.0,31.1,23.6,08.3,0000.0,0001.51,0000.73,0000.44
